Location: Cormont
(50.5693°N, 1.7416°E)
Time: 12:36:46
(UTC+00:00)

STARLINK-34 - Pass Details

Date: 21 October 2019
Orbit: 548 x 551 km, 53.0° (Epoch: 16 November)

Event Time Altitude Azimuth Distance (km) Brightness Sun altitude
Rises 17:38:17 0° 268° (W) 2,717 9.6 -8.4°
Reaches altitude 10° 17:40:32 10° 272° (W) 1,824 7.9 -8.8°
Maximum altitude 17:44:39 63° 354° (N) 618 3.9 -9.4°
Enters shadow 17:48:14 13° 74° (ENE) 1,617 5.4 -10.0°
